Location: Kalberh�ni
(46.4610°N, 7.2453°E)
Time: 20:47:40
(UTC+00:00)

Cosmos 1626 - Pass Details

Date: 26 October 2021
Orbit: 487 x 492 km, 82.5° (Epoch: 03 December)

Event Time Altitude Azimuth Distance (km) Brightness Sun altitude
Exits shadow 04:33:49 33° 290° (WNW) 853 2.8 -16.1°
Drops below altitude 10° 04:37:05 10° 351° (N) 1,700 4.7 -15.5°
Sets 04:39:21 0° 1° (N) 2,587 5.8 -15.1°
